CZ-6A DEB

Satellite information

Favourite Embed

Satellite Type and Status

DEBRISIN ORBIT

Key statistics

Satellite CZ-6A DEB at a glance.

Uptime

1030

Days in orbit

Revolutions

≈ 14.2

Per day

Orbit

SSO

Sun Synchronous Orbit

Inclination

98.8

Latest

Satellite identification and parameters

Extended collection of information and parameters for CZ-6A DEB.

Object identification

Identified? True

Debris? True

Object name: CZ-6A DEB

International designator: 2022-151ABM

Object number (NORAD): 56245

Object ID (CCSDS): 56245

Country: PEOPLES REPUBLIC OF CHINA (PRC)

Current information (Y/N): Y

RCS size: SMALL

Orbital parameters

Period: 101.357 minutes

Inclination: 98.813 deg

SMA: 7201.071 km

Apoapsis: 860.38 km

Periapsis: 785.493 km

RAAN: 247.4198 deg

Eccentricy: 0.00519977

Argument of periapsis: 52.7729 deg

Mean anomaly: 307.8176 deg

Mean motion: 14.20715377 rev/day

Mean motion (dot): 0.0000951 rev/day2

B* drag term: 0.0043663223 1/REarth

Two-line elements (TLE)

Creation date: Sept. 1, 2025, 7:24 p.m.

Reference frame: TEME

Reference center: EARTH

Epoch: Sept. 1, 2025, 12:39 p.m. UTC

TLE line 0: 0 CZ-6A DEB

TLE line 1: 1 56245U 22151ABM 25244.52749771 .00009510 00000-0 43663-2 0 9991

TLE line 2: 2 56245 98.8130 247.4198 0051998 52.7729 307.8176 14.20715377130836

Live tracking on map

Real-time ground track for satellite CZ-6A DEB.

In-orbit conjunctions

A list of the most updated potential collisions computed for object CZ-6A DEB.

Target Orbit TCA Probability of collision Miss distance Type
SL-16 R/B LEO 2025-07-17 04:02:12 0.0001046718 377.0 (m) ROCKET BODY
METEOR 1-15 LEO 2024-10-23 03:41:51 0.0001491163 284.0 (m) PAYLOAD

Associated space launch

Chinese satellite reported for atmospheric/ocean/environmental/spatial parameter research purposes, details TBD.

CZ-6A DEB was lifted into orbit during the mission ‘Long March 6A | Yunhai 3’, on board a Long March 6A space rocket.

The launch took place on Nov. 11, 2022, 10:52 p.m. from Launch Complex 9A.

For more information about the launch, click the button.

Launch to space Long March 6A | Yunhai 3
Long March 6A | Yunhai 3

Agency: N/A

Status: Launch Successful

Launch date: Nov. 11, 2022, 10:52 p.m. UTC

Rocket: Long March 6A

Launch pad: Launch Complex 9A

Location: Taiyuan Satellite Launch Center, People's Republic of China

...

Latest news about this satellite

There are no fresh news available about this satellite. Check back as we update our databases every day.


Newsletter sign-up

Weekly statistics, charts and insights to help you stay on top of the space industry.